Regional Weather Roundup
Issued by NWS Jackson, KY

Home | Current Version | Previous Version | Graphics & Text | Print | Product List | Glossary On
Versions: 1 2 3 4 5 6 7 8 9 10 11 12 13 14 15 16 17 18 19 20 21 22 23 24 25 26 27
000
ASUS43 KJKL 270910
RWRJKL

EAST KENTUCKY HOURLY WEATHER ROUNDUP
NATIONAL WEATHER SERVICE JACKSON KY
500 AM EDT SAT AUG 27 2016

NOTE: "FAIR" INDICATES FEW OR NO CLOUDS BELOW 12,000 FEET WITH
NO SIGNIFICANT WEATHER AND/OR OBSTRUCTIONS TO VISIBILITY.

* THESE REPORTS ARE NOT UNDER NWS QUALITY CONTROL AND MAY NOT
  REPORT WEATHER SUCH AS PRECIPITATION AND FOG.

KYZ079-080-083-085-087-088-110-112-115-119-120-271000
...EASTERN KENTUCKY...

CITY           SKY/WX    TMP DP  RH WIND       PRES   REMARKS
JACKSON        CLEAR     74  69  85 CALM      30.12F
LONDON         CLEAR     70  67  90 CALM      30.11S
SOMERSET*      CLOUDY    70  70 100 CALM      30.10S
MONTICELLO*    MOCLDY   N/A N/A N/A W9        30.11S
WILLIAMSBURG*  SUNNY     68  68 100 CALM      30.11S VSB 1
MIDDLESBORO*   PTCLDY    68  68 100 CALM      30.13S FOG
HARLAN APT*    CLOUDY    68  66  94 CALM      30.15S
PIKE CO APT*     N/A     73  73 100 CALM      30.14S
BIG SANDY APT* SUNNY     72  72 100 SE3       30.13S FOG
MOREHEAD APT*  SUNNY     72  70  94 CALM      30.13S
$$

KYZ035-036-041-042-044-050-067-078-099-271000
...CENTRAL KENTUCKY...

CITY           SKY/WX    TMP DP  RH WIND       PRES   REMARKS
MT STERLING*   CLOUDY    70  70 100 CALM      30.13S FOG
FLEMING/MASON* CLOUDY    73  71  95 CALM      30.12S
DANVILLE*      PTCLDY    68  68 100 CALM      30.11S
LEXINGTON      CLOUDY    74  69  85 SE3       30.10F
FRANKFORT      CLOUDY    74  70  87 CALM      30.08F
LOUISVILLE     CLOUDY    77  72  84 NW3       30.07R
LEBANON*         N/A     72  70  94 CALM      30.08F
GLASGOW*       CLOUDY    74  74 100 E3        30.06F
BOWLING GREEN  CLOUDY    73  70  90 E3        30.05F
$$

KYZ091>093-OHZ055-061-077-WVZ005-015-034-035-042-271000
...SOUTHERN OHIO/WEST VIRGINIA...

CITY           SKY/WX    TMP DP  RH WIND       PRES   REMARKS
COVINGTON      CLOUDY    74  72  93 CALM      30.10S
COLUMBUS       CLOUDY    72  62  71 E7        30.12S
DAYTON         MOCLDY    71  68  90 E5        30.12F
WILMINGTON     PTCLDY    72  70  93 E5        30.12S
HUNTINGTON     PTCLDY    73  71  93 CALM      30.11R FOG
CHARLESTON     FOG       71  70  96 CALM      30.13R VSB 1
PINEVILLE*     CLOUDY    68  65  90 MISG      30.23R FOG
BECKLEY        CLEAR     68  66  93 S3        30.22S
BLUEFIELD      CLEAR     67  66  97 NE3       30.24S
LOGAN CO APT*    N/A     72  72 100 CALM      30.15R FOG
$$

VAZ002-007-008-TNZ017-027-036-066-071-271000
...SOUTHWEST VIRGINIA/EAST TENNESSEE...

CITY           SKY/WX    TMP DP  RH WIND       PRES   REMARKS
WISE*          CLEAR     68  66  94 CALM      30.23S
JONESVILLE*      N/A     68  66  94 CALM      30.16S
ABINGDON*      CLEAR     71  70  98 CALM      30.19S
BRISTOL        CLEAR     68  67  96 CALM      30.15F FOG
MORRISTOWN*    SUNNY     73  70  88 E3        30.10F
SEVIERVILLE*   SUNNY     70  66  88 CALM      30.09F
KNOXVILLE      PTCLDY    74  70  87 E3        30.08F
OAK RIDGE      CLEAR     74  72  93 CALM      30.09F
CROSSVILLE     CLEAR     70  68  93 CALM      30.14F
NASHVILLE      MOCLDY    73  70  90 CALM      30.06F
$$

...KEY TO REMARKS...
VSB - VISIBILITY IN MILES
WCI - WIND CHILL INDEX
HX  - HEAT INDEX

$$




USA.gov is the U.S. government's official web portal to all federal, state and local government web resources and services.